{"data":{"norad_id":59747,"intl_designator":"2024-090T","name":"STARLINK-31636","alt_names":[],"object_type":"PAYLOAD","status":"ACTIVE","operator":null,"country":"US","launch_date":"2024-05-13","launch_site_code":"AFETR","launch_vehicle":null,"mission":null,"orbit_class":"UNKNOWN","rcs_meters":null,"size_class":null,"mass_kg":null,"dimensions":null,"purposes":["comms"],"wikipedia_slug":null,"has_3d_model":false,"image_url":null,"decayed_at":null,"tle_current":{"epoch":"2026-09-21T01:46:52.907808Z","epoch_age_seconds":121758,"freshness":"FRESH","line1":"1 59747U 24090T   26264.07422347  .00004962  00000+0  18985-3 0  9990","line2":"2 59747  43.0008 159.8923 0000997 269.9374  90.1364 15.27553128133325","mean_motion":15.27553128,"eccentricity":9.97e-5,"inclination_deg":43.0008,"raan_deg":159.8923,"arg_perigee_deg":269.9374,"mean_anomaly_deg":90.1364,"bstar":0.00018985,"rev_number":13332,"period_min":94.268407010195,"perigee_km":482.44549337818,"apogee_km":483.81362993058,"semimajor_km":6861.2665616544,"source":"CELESTRAK","updated_at":"2026-09-22T09:00:49.065407Z"}}}